Location: New Canada
(47.1017°N, 68.5042°W)
Time: 15:32:44
(UTC+00:00)

KKS-1 - Pass Details

Date: 30 April 2024
Orbit: 628 x 639 km, 98.1° (Epoch: 21 May)

Event Time Altitude Azimuth Distance (km) Brightness Sun altitude
Rises 03:00:12 0° 25° (NNE) 2,956 ? -24.7°
Reaches altitude 10° 03:02:46 10° 39° (NE) 2,040 ? -24.9°
Enters shadow 03:05:03 21° 66° (ENE) 1,434 ? -25.1°
